{"data":{"norad_id":65885,"epoch":"2026-05-25T01:39:38.981952Z","epoch_age_seconds":72276,"freshness":"FRESH","line1":"1 65885U 25224D   26145.06920118  .00026332  00000+0  78789-3 0  9999","line2":"2 65885  53.1582  15.4947 0001186  87.7566 272.3573 15.34393517 36484","mean_motion":15.34393517,"eccentricity":0.0001186,"inclination_deg":53.1582,"raan_deg":15.4947,"arg_perigee_deg":87.7566,"mean_anomaly_deg":272.3573,"bstar":0.00078789,"rev_number":3648,"period_min":93.848154599574,"perigee_km":461.9111831794,"apogee_km":463.53383505496,"semimajor_km":6840.8595091172,"source":"CELESTRAK","updated_at":"2026-05-25T13:38:20.979103Z"}}